sat.trackr.live / text

‹ back to catalog

STARLINK-3060

NORAD 49155 · 2021-082AB

PAYLOAD ACTIVE UNKNOWN

§ Identity

Operator
Country
US
Launch date
2021-09-14
Launch site
AFWTR
Launch vehicle
Mass (kg)
RCS (m²)

Purposes: comms

External: N2YO · Heavens-Above · Gunter

§ Orbital elements

Epoch: 2026-05-25T04:53:22.271136Z

Period
96.11 min
Inclination
70.0006°
Eccentricity
0.0003244
Mean motion
14.98332397 rev/d
Perigee alt
569.8 km
Apogee alt
574.3 km
Semi-major
6,950.2 km
B*
3.1402e-5
RAAN
61.5291°
Arg perigee
268.7457°
Mean anomaly
91.3331°
Rev number
25,950

§ Raw data

STARLINK-30601 49155U 21082AB  26145.20372999  .00000282  00000+0  31402-4 0  99912 49155  70.0006  61.5291 0003244 268.7457  91.3331 14.98332397259505

JSON: /api/v1/satellites/49155 · /tle

For live sub-satellite position, see the globe view (requires WebGL).

§ Visibility from observer

Set your observer location to see the next 7 days of passes ≥ 10°. The values pass through the URL so the page stays shareable.

No JS? Fill the form by hand. The geolocation button needs JavaScript.